FLOCK 2'-3

Last updated on Tue Aug 02 2016 17:39:13 GMT+0000 (Coordinated Universal Time)

1 41618U 16040V 16215.41825850 .00001040 00000-0 51530-4 0 9992 2 41618 97.5060 274.3677 0013243 114.8158 245.4455 15.19924342 6214
UTC large
Height (km)
Speed (km/s)
/
Latitude / Longitude
Inclination (degrees)
Orbital Period (minutes)
Azimuth
Elevation
Range (km)
Doppler Factor

Next 0 passes for location: London (51.5072 / 0.1276)

Sorry there are no passes over London.